Regional Weather Roundup
Issued by NWS Burlington, VT

Current Version | Previous Version | Text Only | Print | Product List | Glossary Off
Versions: 1 2 3 4 5 6 7 8 9 10 11 12 13 14 15 16 17 18 19 20 21 22 23 24 25 26 27 28 29 30 31 32 33 34 35 36 37 38 39 40 41 42 43 44 45 46 47 48 49 50

000
ASUS41 KBTV 281310
RWRBTV
VERMONT REGIONAL WEATHER ROUNDUP
NATIONAL WEATHER SERVICE BURLINGTON VT
800 AM EST SAT FEB 28 2015

NOTE: "FAIR" INDICATES FEW OR NO CLOUDS BELOW 12,000 FEET WITH NO
SIGNIFICANT WEATHER AND/OR OBSTRUCTIONS TO VISIBILITY.

* THESE REPORTS ARE NOT UNDER NWS QUALITY CONTROL AND/OR DO NOT
  REPORT WEATHER SUCH AS PRECIPITATION AND FOG.

VTZ001>019-281400-
_____VERMONT_____


CITY           SKY/WX    TMP DP  RH WIND       PRES   REMARKS
BURLINGTON     SUNNY     -3 -10  72 CALM      30.73R
MONTPELIER     SUNNY     -8 -11  86 CALM      30.67R
MORRISVILLE    SUNNY    -10 -15  78 CALM      30.69R
ST. JOHNSBURY*   N/A    -12 -17  78 MISG      30.69R
LYNDONVILLE*   FAIR      -6 -13  71 CALM      30.64R
MIDDLEBURY*    FAIR       1  -6  73 S3        30.71R
RUTLAND*       SUNNY     -4 -27  31 SE6       30.68R
SPRINGFIELD    SUNNY     -7 -10  87 CALM      30.70R
HIGHGATE*      FAIR       7  -3  64 S5        30.71R
NEWPORT*       FAIR      -4 -10  78 CALM      30.64R
BENNINGTON     SUNNY     -1  -5  82 CALM      30.71R

_____LAKE CHAMPLAIN_____


CITY           SKY/WX    TMP DP  RH WIND       PRES   REMARKS

$$

NYZ007-026>031-035-052-083-281400-
_____NORTHERN NEW YORK_____


CITY           SKY/WX    TMP DP  RH WIND       PRES   REMARKS
PLATTSBURGH    SUNNY     12  -1  56 SW8       30.73R
SARANAC LAKE   PTSUNNY    0  -3  87 SW6       30.58R
MASSENA        SUNNY      4  -4  69 SW12      30.73R WCI -12
OGDENSBURG*    SUNNY      7   1  78 SW7       30.73R
POTSDAM*       SUNNY      7   1  78 SW8       30.71R
WATERTOWN      CLOUDY     7   1  76 S6        30.75R
FT DRUM        SUNNY      0  -5  82 S8        30.70R
ALBANY         SUNNY      7  -3  64 W7        30.79R
GLENS FALLS    SUNNY     -8 -13  78 CALM      30.76R

$$
NHZ002-005-011-281400-
_____NEW HAMPSHIRE_____


CITY           SKY/WX    TMP DP  RH WIND       PRES   REMARKS
LEBANON        SUNNY    -13 -15  91 CALM      30.71R
KEENE          SUNNY     -8  -9  92 CALM      30.70S
MT WASHINGTON  MOSUNNY    1 -18  39 NW20        N/A  WCI -20
PLYMOUTH       FAIR       7  -2  65 NW8       30.66R
WHITEFIELD     SUNNY    -15 -19  82 CALM      30.64R

$$

_____REGIONAL QUEBEC LOCATIONS_____


CITY           SKY/WX    TMP DP  RH WIND       PRES   REMARKS
MONTREAL       MOSUNNY    5  -4  66 SW13      30.71R WCI -12
QUEBEC CITY    MOSUNNY    1  -6  71 W10       30.61R WCI -14
SHERBROOKE     SUNNY      0  -6  78 SW6       30.63R

_____REGIONAL ONTARIO LOCATIONS_____


CITY           SKY/WX    TMP DP  RH WIND       PRES   REMARKS
OTTAWA         SUNNY      1  -6  71 SW10      30.68R WCI -14

______KEY______
VSB  - VISIBILITY IN MILES
WCI  - WIND CHILL INDEX
HX   - HEAT INDEX
$$



USA.gov is the U.S. government's official web portal to all federal, state and local government web resources and services.